CAPE
44 45 39 27 40 54 47 47 45 45 47 27 12 10 21 41 42 0 0 0 0 3 0 0 0 0 0 0 0 0 0 0 1 2 22 18 5 2 26 0 11 42 8 1 3 6 0 0 0 0 3 2 0 1
60 45 43 30 18 39 48 54 58 42 50 35 27 30 41 45 44 3 0 0 0 6 0 0 0 0 0 0 0 0 0 1 12 17 8 7 20 8 2 53 6 31 4 40 2 0 0 2 3 0 1 5 5 4
54 62 39 13 12 40 49 53 61 46 60 43 30 35 42 45 61 36 8 2 8 20 10 0 0 0 0 0 0 10 0 1 17 18 34 55 13 9 10 9 35 7 8 24 2 13 11 10 4 2 2 7 7 5
29 35 40 14 10 53 43 31 49 58 51 28 17 25 39 47 54 60 18 1 4 11 0 0 0 0 0 0 0 0 0 7 7 30 15 37 11 12 1 7 7 29 22 3 9 16 14 17 21 16 7 4 4 5
54 54 52 43 17 46 25 40 56 40 22 13 27 40 45 47 52 40 32 0 2 1 0 0 0 0 0 0 0 0 0 0 7 11 9 19 15 34 6 25 6 19 17 12 9 15 3 8 6 7 4 5 6 2
39 54 56 19 46 43 40 41 35 20 16 31 36 30 31 44 68 57 0 0 7 5 4 1 0 0 0 0 0 0 0 1 9 21 34 14 7 52 9 3 10 6 5 11 15 6 3 6 6 6 2 2 3 3
59 27 16 27 62 54 45 37 24 24 25 26 27 38 47 62 18 0 0 0 12 0 2 0 0 0 0 0 0 0 0 1 1 5 4 0 0 15 49 4 4 7 4 5 8 5 2 4 2 2 0 0 0 0
76 36 58 59 51 43 41 40 13 8 17 28 34 37 27 3 6 12 4 18 8 1 0 0 0 0 0 0 1 0 0 0 2 1 1 12 2 20 2 3 3 3 7 3 3 1 0 1 0 0 0 0 0 0
55 67 51 51 50 49 28 22 4 15 32 28 21 7 2 0 7 10 26 19 0 0 1 0 0 0 1 5 0 17 4 22 0 14 1 10 0 3 2 2 2 2 1 2 1 0 1 0 1 0 0 0 0 1
67 53 50 60 59 46 8 8 9 17 11 33 0 0 0 11 16 25 6 0 0 0 0 0 0 0 0 1 6 1 2 0 3 6 7 47 0 3 2 2 2 2 0 0 2 3 1 1 1 1 2 1 0 1
65 51 39 18 4 3 6 15 26 17 27 3 0 3 13 23 0 0 0 0 0 1 0 0 0 0 0 1 6 0 1 2 5 6 8 1 0 3 1 1 1 2 1 1 1 1 1 1 2 2 1 2 1 0
42 22 7 6 16 14 23 19 47 7 1 0 1 5 17 1 0 0 7 5 1 0 0 1 1 0 0 2 9 7 3 6 8 3 1 0 1 2 1 1 2 2 1 2 2 1 1 1 0 0 1 0 0 0
27 27 27 33 38 33 38 21 38 6 0 0 0 1 0 0 0 0 0 1 6 0 0 4 14 8 10 5 1 8 1 0 2 1 0 0 2 2 1 1 1 1 0 0 0 0 0 0 0 0 0 0 0 0
33 28 31 47 23 15 21 24 20 16 0 0 0 0 0 0 0 0 0 0 0 4 0 0 3 3 1 1 1 0 1 2 0 0 0 1 2 2 1 0 0 0 0 0 0 0 0 0 0 0 0 0 0 0
40 29 23 26 20 13 23 16 22 0 0 0 0 0 0 0 0 0 0 0 0 2 0 1 0 0 0 0 0 0 0 0 0 0 0 0 0 0 0 0 0 0 0 0 0 0 0 0 0 0 0 0 0 0
24 17 15 20 13 22 22 0 0 0 0 0 0 0 0 0 0 0 0 2 1 1 2 0 0 0 0 0 0 0 0 0 0 0 0 0 0 0 0 0 0 0 0 0 0 0 0 0 0 0 0 0 0 0
16 14 21 16 25 14 0 0 0 0 0 0 0 0 0 0 0 0 0 0 0 0 0 0 0 0 0 0 0 0 0 0 0 0 0 0 0 0 0 0 0 0 0 0 0 0 0 0 0 0 0 0 0 0
9 2 20 26 0 0 0 0 0 0 0 0 0 0 0 0 0 0 0 0 0 0 0 0 0 0 0 0 0 0 0 0 0 0 0 0 0 0 0 0 0 0 0 0 0 0 0 0 0 0 0 0 0 0
3 12 17 0 0 0 0 0 0 0 0 0 0 0 0 0 0 0 0 0 0 0 0 0 0 0 0 0 0 0 0 0 0 0 0 0 0 0 0 0 0 0 0 0 0 0 0 0 0 0 0 0 0 0
8 0 0 0 0 0 0 0 0 0 0 0 0 0 0 0 0 0 0 0 0 0 0 0 0 0 0 0 0 0 0 0 0 1 1 1 0 0 0 0 0 0 0 0 0 0 0 0 0 0 0 0 2 1
0 0 0 0 0 0 0 0 0 0 0 0 0 0 0 0 0 0 0 0 0 0 0 0 0 0 0 0 0 0 0 0 0 0 0 1 0 0 0 0 0 0 0 0 0 0 0 0 0 0 0 0 0 0
0 0 0 0 0 0 0 0 0 0 0 0 0 0 0 0 0 0 0 0 0 0 0 0 0 0 0 0 0 0 0 0 0 0 0 0 0 0 0 0 0 0 0 0 0 0 0 0 0 0 0 0 0 0
0 0 0 0 0 0 0 0 0 0 0 0 0 0 0 0 0 0 0 0 0 0 0 0 0 0 0 0 0 0 0 0 0 0 0 0 0 0 0 0 0 0 0 0 0 0 0 0 0 0 0 0 0 0
0 0 0 0 0 0 0 0 0 0 0 0 0 0 0 0 0 0 0 0 0 0 0 0 0 0 0 0 0 0 0 0 0 0 0 0 0 0 0 0 0 0 0 0 0 0 0 0 0 0 0 0 0 0
0 0 0 0 0 0 0 0 0 0 0 0 0 0 0 0 0 0 0 0 0 0 0 0 0 0 0 0 0 0 0 0 0 0 0 0 0 0 0 0 0 0 0 0 0 0 0 0 0 0 0 0 0 0
0 0 0 0 0 0 0 0 0 0 0 0 0 0 0 0 0 0 0 0 0 0 0 0 0 0 0 0 0 0 0 0 0 0 0 0 0 0 0 0 0 0 0 0 0 0 0 0 0 0 0 0 0 0
0 0 0 0 0 0 0 0 0 0 0 0 0 0 0 0 0 0 0 0 0 0 0 0 0 0 0 0 0 0 0 0 0 0 0 0 0 0 0 0 0 0 0 0 0 0 0 0 0 0 0 0 0 0
0 0 0 0 0 0 0 0 0 0 0 0 0 0 0 0 0 0 0 0 0 0 0 0 0 0 0 0 0 0 0 0 0 0 0 0 0 0 0 0 0 0 0 0 0 0 0 0 0 0 0 0 0 0
0 0 0 0 0 0 0 0 0 0 0 0 0 0 0 0 0 0 0 0 0 0 0 0 0 0 0 0 0 0 0 0 0 0 0 0 0 0 0 0 0 0 0 0 0 0 0 0 0 0 0 0 0 0
0 0 0 0 0 0 0 0 0 0 0 0 0 0 0 0 0 0 0 0 0 0 0 0 0 0 0 0 0 0 0 0 0 0 0 0 0 0 0 0 0 0 0 0 0 0 0 0 0 0 0 0 0 0
0 0 0 0 0 0 0 0 0 0 0 0 0 0 0 0 0 0 0 0 0 0 0 0 0 0 0 0 0 0 0 0 0 0 0 0 0 0 0 0 0 0 0 0 0 0 0 0 0 0 0 0 0 0
0 0 0 0 0 0 0 0 0 0 0 0 0 0 0 0 0 0 0 0 0 0 0 0 0 0 0 0 0 0 0 0 0 0 0 0 0 0 0 0 0 0 0 0 0 0 0 0 0 0 0 0 0 0
0 0 0 0 0 0 0 0 0 0 0 0 0 0 0 0 0 0 0 0 0 0 0 0 0 0 0 0 0 0 0 0 0 1 0 0 0 0 0 0 0 0 0 0 0 0 0 0 0 0 0 0 0 0
CIN
-0 -0 -0 -0 -1 -0 -0 -0 -0 -0 -2 -1 -6 -6 -1 -2 -1 -0 -0 -0 -0 -7 -0 -0 -0 -0 -0 -0 -0 -0 -0 -0 -0 -0 -0 -0 -8 -30 -53 -16 -52 -21 -27 -0 -1 -0 -0 -0 -0 -0 -0 -0 -0 -0
-0 -0 -0 -0 -0 -1 -0 -1 -2 -2 -0 -0 -0 -0 -0 -0 -0 -0 -0 -0 -0 -1 -0 -0 -0 -0 -0 -0 -0 -0 -0 -0 -0 -0 -0 -0 -1 -14 -0 -4 -75 -11 -22 -17 -14 -0 -1 -0 -0 -0 -0 -0 -0 -0
-0 -0 -0 -1 -3 -0 -3 -2 -1 -2 -0 -1 -0 -0 -0 -0 -0 -1 -7 -6 -1 -0 -1 -0 -0 -0 -0 -0 -0 -0 -0 -1 -0 -3 -0 -0 -0 -0 -3 -12 -7 -1 -0 -1 -0 -0 -0 -0 -0 -0 -0 -0 -0 -0
-2 -0 -0 -1 -0 -0 -3 -0 -0 -0 -0 -2 -0 -0 -0 -0 -1 -0 -1 -1 -3 -0 -0 -0 -0 -0 -0 -0 -0 -0 -0 -8 -3 -0 -0 -0 -0 -1 -0 -0 -0 -0 -0 -0 -0 -0 -0 -0 -0 -0 -0 -0 -0 -0
-0 -0 -1 -0 -0 -0 -6 -0 -1 -1 -2 -1 -0 -0 -0 -0 -0 -5 -2 -0 -7 -1 -0 -0 -0 -0 -0 -0 -0 -0 -0 -0 -0 -0 -0 -0 -6 -0 -0 -0 -0 -0 -0 -0 -0 -0 -0 -0 -0 -0 -0 -0 -0 -0
-1 -0 -0 -0 -0 -0 -3 -1 -0 -0 -0 -0 -0 -0 -0 -0 -0 -1 -0 -0 -1 -1 -0 -0 -0 -0 -0 -0 -0 -0 -0 -0 -1 -0 -0 -2 -12 -0 -0 -0 -0 -0 -0 -0 -0 -0 -0 -0 -0 -0 -0 -0 -0 -0
-0 -1 -1 -0 -0 -2 -3 -0 -0 -0 -0 -0 -0 -0 -0 -0 -3 -0 -0 -0 -0 -0 -0 -0 -0 -0 -0 -0 -0 -0 -0 -0 -0 -3 -3 -0 -0 -0 -0 -0 -0 -0 -0 -0 -0 -0 -0 -0 -0 -0 -0 -0 -0 -0
-0 -3 -1 -3 -3 -1 -0 -0 -0 -0 -0 -0 -0 -1 -0 -0 -0 -0 -0 -0 -0 -0 -0 -0 -0 -0 -0 -0 -0 -0 -0 -0 -6 -8 -1 -1 -8 -0 -0 -0 -0 -0 -0 -0 -0 -0 -0 -0 -0 -0 -0 -0 -0 -0
-0 -1 -3 -1 -2 -1 -0 -0 -1 -0 -0 -0 -0 -0 -2 -0 -0 -0 -0 -0 -0 -0 -0 -0 -0 -0 -0 -2 -0 -0 -4 -0 -0 -0 -2 -10 -0 -0 -0 -0 -0 -0 -0 -0 -0 -0 -0 -0 -0 -0 -0 -0 -0 -0
-0 -2 -0 -0 -0 -0 -2 -3 -1 -0 -0 -0 -0 -0 -0 -0 -0 -0 -0 -0 -0 -0 -0 -2 -0 -0 -0 -0 -0 -1 -0 -0 -0 -1 -12 -0 -0 -0 -0 -0 -0 -0 -0 -0 -0 -0 -0 -0 -0 -0 -0 -0 -0 -0
-0 -0 -0 -0 -1 -0 -0 -1 -0 -0 -0 -0 -0 -0 -0 -7 -0 -0 -0 -0 -0 -0 -0 -0 -0 -0 -0 -0 -2 -2 -0 -0 -0 -1 -0 -0 -0 -0 -0 -0 -0 -0 -0 -0 -0 -0 -0 -0 -0 -0 -0 -0 -0 -0
-0 -0 -0 -0 -0 -0 -0 -0 -0 -0 -0 -0 -0 -0 -1 -0 -0 -0 -3 -1 -2 -0 -0 -0 -0 -2 -0 -0 -0 -0 -0 -0 -0 -0 -0 -0 -0 -0 -0 -0 -0 -0 -0 -0 -0 -0 -0 -0 -0 -0 -0 -0 -0 -0
-0 -0 -0 -0 -0 -0 -0 -0 -0 -4 -0 -0 -0 -0 -0 -0 -0 -0 -0 -0 -1 -0 -0 -0 -0 -0 -1 -0 -0 -0 -0 -0 -0 -0 -0 -0 -0 -0 -0 -0 -0 -0 -0 -0 -0 -0 -0 -0 -0 -0 -0 -0 -0 -0
-0 -0 -0 -0 -1 -0 -0 -0 -0 -9 -0 -0 -0 -0 -0 -0 -0 -0 -0 -0 -0 -0 -0 -0 -0 -0 -0 -0 -0 -0 -0 -0 -0 -0 -0 -0 -0 -0 -0 -0 -0 -0 -0 -0 -0 -0 -0 -0 -0 -0 -0 -0 -0 -0
-0 -0 -0 -0 -0 -0 -0 -0 -2 -0 -0 -0 -0 -0 -0 -0 -0 -0 -0 -0 -0 -0 -0 -0 -0 -0 -0 -0 -0 -0 -0 -0 -0 -0 -0 -0 -0 -0 -0 -0 -0 -0 -0 -0 -0 -0 -0 -0 -0 -0 -0 -0 -0 -0
-0 -0 -0 -0 -0 -0 -0 -0 -0 -0 -0 -0 -0 -0 -0 -0 -0 -0 -0 -0 -0 -0 -0 -0 -0 -0 -0 -0 -0 -0 -0 -0 -0 -0 -0 -0 -0 -0 -0 -0 -0 -0 -0 -0 -0 -0 -0 -0 -0 -0 -0 -0 -0 -0
-0 -0 -0 -0 -0 -0 -0 -0 -0 -0 -0 -0 -0 -0 -0 -0 -0 -0 -0 -0 -0 -0 -0 -0 -0 -0 -0 -0 -0 -0 -0 -0 -0 -0 -0 -0 -0 -0 -0 -0 -0 -0 -0 -0 -0 -0 -0 -0 -0 -0 -0 -0 -0 -0
-0 -0 -0 -0 -0 -0 -0 -0 -0 -0 -0 -0 -0 -0 -0 -0 -0 -0 -0 -0 -0 -0 -0 -0 -0 -0 -0 -0 -0 -0 -0 -0 -0 -0 -0 -0 -0 -0 -0 -0 -0 -0 -0 -0 -0 -0 -0 -0 -0 -0 -0 -0 -0 -0
-0 -0 -0 -0 -0 -0 -0 -0 -0 -0 -0 -0 -0 -0 -0 -0 -0 -0 -0 -0 -0 -0 -0 -0 -0 -0 -0 -0 -0 -0 -0 -0 -0 -0 -0 -0 -0 -0 -0 -0 -0 -0 -0 -0 -0 -0 -0 -0 -0 -0 -0 -0 -0 -0
-0 -1 -0 -0 -0 -0 -0 -0 -0 -0 -0 -0 -0 -0 -0 -0 -0 -0 -0 -0 -0 -0 -0 -0 -0 -0 -0 -0 -0 -0 -0 -0 -0 -0 -0 -0 -0 -0 -0 -0 -0 -0 -0 -0 -0 -0 -0 -0 -0 -0 -0 -0 -0 -0
-0 -0 -0 -0 -0 -0 -0 -0 -0 -0 -0 -0 -0 -0 -0 -0 -0 -0 -0 -0 -0 -0 -0 -0 -0 -0 -0 -0 -0 -0 -0 -0 -0 -0 -0 -0 -0 -0 -0 -0 -0 -0 -0 -0 -0 -0 -0 -0 -0 -0 -0 -0 -0 -0
-0 -0 -0 -0 -0 -0 -0 -0 -0 -0 -0 -0 -0 -0 -0 -0 -0 -0 -0 -0 -0 -0 -0 -0 -0 -0 -0 -0 -0 -0 -0 -0 -0 -0 -0 -0 -0 -0 -0 -0 -0 -0 -0 -0 -0 -0 -0 -0 -0 -0 -0 -0 -0 -0
-0 -0 -0 -0 -0 -0 -0 -0 -0 -0 -0 -0 -0 -0 -0 -0 -0 -0 -0 -0 -0 -0 -0 -0 -0 -0 -0 -0 -0 -0 -0 -0 -0 -0 -0 -0 -0 -0 -0 -0 -0 -0 -0 -0 -0 -0 -0 -0 -0 -0 -0 -0 -0 -0
-0 -0 -0 -0 -0 -0 -0 -0 -0 -0 -0 -0 -0 -0 -0 -0 -0 -0 -0 -0 -0 -0 -0 -0 -0 -0 -0 -0 -0 -0 -0 -0 -0 -0 -0 -0 -0 -0 -0 -0 -0 -0 -0 -0 -0 -0 -0 -0 -0 -0 -0 -0 -0 -0
-0 -0 -0 -0 -0 -0 -0 -0 -0 -0 -0 -0 -0 -0 -0 -0 -0 -0 -0 -0 -0 -0 -0 -0 -0 -0 -0 -0 -0 -0 -0 -0 -0 -0 -0 -0 -0 -0 -0 -0 -0 -0 -0 -0 -0 -0 -0 -0 -0 -0 -0 -0 -0 -0
-0 -0 -0 -0 -0 -0 -0 -0 -0 -0 -0 -0 -0 -0 -0 -0 -0 -0 -0 -0 -0 -0 -0 -0 -0 -0 -0 -0 -0 -0 -0 -0 -0 -0 -0 -0 -0 -0 -0 -0 -0 -0 -0 -0 -0 -0 -0 -0 -0 -0 -0 -0 -0 -0
-0 -0 -0 -0 -0 -0 -0 -0 -0 -0 -0 -0 -0 -0 -0 -0 -0 -0 -0 -0 -0 -0 -0 -0 -0 -0 -0 -0 -0 -0 -0 -0 -0 -0 -0 -0 -0 -0 -0 -0 -0 -0 -0 -0 -0 -0 -0 -0 -0 -0 -0 -0 -0 -0
-0 -0 -0 -0 -0 -0 -0 -0 -0 -0 -0 -0 -0 -0 -0 -0 -0 -0 -0 -0 -0 -0 -0 -0 -0 -0 -0 -0 -0 -0 -0 -0 -0 -0 -0 -0 -0 -0 -0 -0 -0 -0 -0 -0 -0 -0 -0 -0 -0 -0 -0 -0 -0 -0
-0 -0 -0 -0 -0 -0 -0 -0 -0 -0 -0 -0 -0 -0 -0 -0 -0 -0 -0 -0 -0 -0 -0 -0 -0 -0 -0 -0 -0 -0 -0 -0 -0 -0 -0 -0 -0 -0 -0 -0 -0 -0 -0 -0 -0 -0 -0 -0 -0 -0 -0 -0 -0 -0
-0 -0 -0 -0 -0 -0 -0 -0 -0 -0 -0 -0 -0 -0 -0 -0 -0 -0 -0 -0 -0 -0 -0 -0 -0 -0 -0 -0 -0 -0 -0 -0 -0 -0 -0 -0 -0 -0 -0 -0 -0 -0 -0 -0 -0 -0 -0 -0 -0 -0 -0 -0 -0 -0
-0 -0 -0 -0 -0 -0 -0 -0 -0 -0 -0 -0 -0 -0 -0 -0 -0 -0 -0 -0 -0 -0 -0 -0 -0 -0 -0 -0 -0 -0 -0 -0 -0 -0 -0 -0 -0 -0 -0 -0 -0 -0 -0 -0 -0 -0 -0 -0 -0 -0 -0 -0 -0 -0
-0 -0 -0 -0 -0 -0 -0 -0 -0 -0 -0 -0 -0 -0 -0 -0 -0 -0 -0 -0 -0 -0 -0 -0 -0 -0 -0 -0 -0 -0 -0 -0 -0 -0 -0 -0 -0 -0 -0 -0 -0 -0 -0 -0 -0 -0 -0 -0 -0 -0 -0 -0 -0 -0
-0 -0 -0 -0 -0 -0 -0 -0 -0 -0 -0 -0 -0 -0 -0 -0 -0 -0 -0 -0 -0 -0 -0 -0 -0 -0 -0 -0 -0 -0 -0 -0 -0 -0 -0 -0 -0 -0 -0 -0 -0 -0 -0 -0 -0 -0 -0 -0 -0 -0 -0 -0 -0 -0
Wind_Speed
19 17 17 14 13 14 14 13 13 11 11 9 9 8 7 8 12 6 2 5 4 3 4 6 4 5 1 1 2 4 6 3 3 5 5 5 6 5 2 2 0 3 5 3 5 5 7 10 3 3 6 5 8 12
21 18 17 13 13 14 14 14 12 13 11 11 10 10 10 10 12 11 2 3 3 1 4 2 4 9 9 9 3 2 3 5 3 4 3 5 3 4 4 1 3 1 3 1 5 2 5 8 7 7 9 7 7 9
17 19 17 15 14 14 13 11 13 11 12 12 11 12 12 12 14 14 3 5 3 2 5 4 11 10 9 12 9 3 3 3 2 2 3 3 3 3 3 2 3 2 6 2 4 5 10 9 10 11 11 12 11 12
16 17 17 16 14 13 10 11 13 12 12 11 12 13 13 13 14 17 5 6 4 2 3 7 1 4 5 10 12 13 10 2 1 2 3 3 3 2 2 4 2 4 6 5 0 8 9 12 10 9 11 12 14 13
19 21 19 15 14 13 13 16 13 12 12 13 14 14 14 15 15 9 6 8 9 5 4 3 4 4 4 7 11 10 9 7 3 3 3 3 2 3 2 3 3 4 4 3 3 6 8 7 9 10 12 13 11 12
17 19 17 17 16 14 13 14 12 12 13 14 14 14 16 17 15 3 2 4 9 3 2 2 3 2 1 3 7 7 6 3 2 3 3 3 3 2 3 0 4 6 9 9 4 11 14 12 12 11 13 12 12 13
18 17 16 17 16 16 14 13 13 13 13 15 16 16 16 15 6 4 4 1 15 7 3 1 4 1 1 3 1 2 4 3 3 3 3 2 3 3 3 1 5 7 9 9 5 9 9 6 7 9 11 12 14 13
16 16 15 15 15 14 13 13 13 13 14 15 14 15 9 17 12 3 0 18 10 4 2 2 3 2 2 2 2 2 3 2 3 2 1 3 2 2 1 4 5 6 7 10 12 14 13 11 10 10 9 9 11 11
16 14 14 14 13 15 13 12 13 13 12 11 23 17 5 3 2 3 19 13 1 2 5 3 2 3 1 1 2 3 3 3 1 3 3 2 1 2 4 5 6 8 5 3 8 10 11 11 10 9 10 9 11 10
16 15 16 14 12 13 12 13 12 12 10 25 3 3 2 3 25 19 2 1 3 2 1 3 2 2 3 2 4 3 1 2 3 4 3 3 1 5 6 7 7 7 8 6 4 6 6 8 9 9 10 9 10 10
17 17 16 15 15 14 13 12 9 10 22 2 3 2 7 11 3 1 3 3 1 2 4 4 7 4 3 3 3 3 3 3 4 3 5 3 2 3 7 8 8 8 9 10 10 8 9 8 8 9 9 10 9 10
18 18 17 17 16 16 13 8 21 7 4 6 10 6 2 2 2 3 4 4 4 4 3 4 4 4 2 3 4 5 4 6 3 6 4 3 2 7 7 8 8 8 8 9 9 10 10 10 9 10 9 10 10 10
19 19 18 17 17 17 13 14 20 11 21 4 5 4 3 2 3 6 6 4 3 3 3 4 4 3 4 4 4 4 3 2 3 1 1 2 5 6 7 7 7 6 7 9 9 9 10 10 10 10 11 9 10 10
20 18 18 16 14 15 18 17 23 15 3 3 4 6 5 3 4 5 4 4 3 2 2 1 3 2 1 2 1 1 0 1 2 2 2 3 7 6 6 5 7 5 6 9 9 9 10 10 10 9 9 7 8 9
18 16 15 16 18 21 24 30 23 3 3 3 3 5 5 2 0 2 2 1 1 1 1 2 3 0 1 2 1 1 1 1 1 1 2 4 6 6 6 7 7 7 5 6 6 7 8 8 8 9 7 7 8 7
17 14 10 17 28 33 31 14 3 2 3 4 5 3 1 2 0 1 1 1 4 2 2 1 3 3 2 1 2 1 2 2 1 2 3 5 4 4 5 6 6 6 6 6 7 8 8 7 8 8 7 6 5 6
23 3 30 34 32 28 12 5 4 5 4 4 2 2 2 2 2 1 2 2 4 1 1 2 3 1 1 2 1 1 2 1 2 2 2 3 6 6 6 6 6 7 7 6 7 7 7 7 7 7 7 6 6 6
10 26 37 33 17 8 4 5 4 4 5 2 2 1 2 2 1 1 2 3 2 1 1 2 3 3 3 3 2 2 2 2 2 3 4 4 5 5 5 7 5 6 7 6 6 6 5 4 4 3 5 5 5 5
22 22 29 20 9 6 5 3 2 4 2 2 3 2 2 1 1 1 2 2 2 2 3 2 4 1 2 2 2 3 3 2 4 3 4 4 5 5 5 5 5 5 5 5 4 3 3 4 3 1 2 3 2 3
27 22 19 17 10 4 5 3 2 4 3 2 2 2 2 1 1 2 3 4 3 2 5 3 1 2 2 2 3 4 4 6 7 7 6 5 5 6 6 6 4 5 4 5 4 3 3 3 4 4 3 1 2 2
15 6 13 8 5 5 4 2 3 2 3 3 2 2 1 2 2 3 3 3 4 3 2 1 1 1 2 1 3 6 5 6 4 3 6 6 4 5 5 4 5 4 3 3 3 2 3 3 2 2 3 3 2 2
3 11 5 5 4 4 4 3 4 3 3 3 2 2 2 2 2 1 1 4 2 0 1 2 2 4 6 5 4 5 6 7 6 6 7 7 5 4 4 3 4 3 3 2 2 3 2 2 2 2 2 2 1 2
8 6 5 4 5 5 1 1 4 2 4 2 2 3 2 1 0 0 3 1 1 1 1 4 5 7 9 6 8 7 5 8 6 6 5 5 4 3 4 2 2 4 4 2 2 3 2 1 2 1 1 1 1 1
7 5 3 3 4 1 1 2 2 3 3 2 2 2 1 2 1 3 2 0 1 0 3 7 6 7 6 6 4 3 4 5 7 6 4 6 6 3 3 4 3 3 2 3 2 2 1 1 1 1 1 0 1 1
5 5 2 3 2 5 3 1 2 3 2 2 3 0 2 2 2 1 2 2 1 3 3 4 4 4 5 4 4 3 3 5 6 6 2 3 6 4 3 3 3 2 1 2 2 1 1 0 0 0 0 1 3 3
5 2 2 4 2 4 4 4 4 5 4 2 2 1 2 3 2 3 2 4 3 3 4 6 5 5 4 2 5 4 3 3 5 4 2 2 2 3 3 3 2 1 2 1 2 1 1 1 1 2 2 2 1 2
4 1 2 2 1 3 4 3 2 4 3 5 4 3 3 2 4 2 1 1 2 2 3 3 4 5 6 5 5 4 4 4 5 5 5 4 3 2 2 2 3 1 2 2 2 1 2 2 1 1 2 2 2 3
3 2 4 1 4 3 5 3 3 2 2 1 3 2 6 5 3 0 1 1 3 6 6 6 6 5 6 6 6 6 7 6 8 7 7 7 5 4 4 4 4 5 3 2 3 2 2 2 1 1 2 3 3 1
3 1 3 5 4 4 3 2 3 0 2 2 4 3 2 2 1 1 1 3 3 6 7 6 5 5 7 6 5 4 5 5 5 4 3 2 1 1 2 2 3 3 2 2 2 3 4 2 2 2 2 3 2 2
1 1 5 3 4 1 2 2 2 1 1 2 2 3 2 2 3 2 2 3 3 4 4 5 5 4 6 6 5 4 2 1 0 3 3 2 3 3 3 2 2 2 2 2 1 1 3 3 1 1 1 1 2 3
1 3 4 3 2 3 3 1 1 1 2 3 2 4 2 2 2 4 3 2 5 5 7 5 4 2 6 5 4 4 1 1 0 1 2 4 5 4 3 2 2 1 2 2 2 1 1 1 2 3 4 4 4 4
3 3 5 4 1 2 2 2 1 3 2 3 2 2 2 3 3 2 2 1 4 4 3 5 6 4 3 2 2 1 1 6 4 4 6 4 4 3 3 2 2 1 2 2 2 1 1 2 3 3 4 5 5 6
3 2 2 4 3 1 3 4 4 2 3 2 2 1 1 3 4 2 1 3 0 3 5 4 4 5 5 5 6 5 6 5 5 5 5 5 5 4 3 2 2 2 3 2 1 1 1 2 2 3 4 4 6 6
Wind_Direction
201 201 204 207 210 218 223 217 211 217 201 203 211 219 212 194 177 140 179 183 144 192 256 214 219 217 166 167 243 310 340 333 299 337 315 342 29 22 296 49 200 159 152 187 199 218 248 356 353 7 333 31 34 44
209 205 200 208 214 219 224 228 212 193 200 210 218 221 215 211 191 172 154 191 144 182 254 266 242 241 225 238 264 253 261 302 303 308 348 306 345 2 3 61 0 69 7 283 242 347 76 46 73 21 13 72 65 82
213 206 201 210 217 219 225 235 204 203 207 215 221 228 228 229 218 188 143 146 130 264 260 233 250 250 213 218 201 205 243 226 208 258 300 305 312 326 332 356 313 68 30 300 357 117 91 80 69 50 45 57 58 65
211 201 192 224 217 213 224 209 216 204 212 225 230 233 238 241 237 204 181 164 162 132 249 270 240 251 235 203 202 213 235 291 12 290 302 291 298 306 302 327 304 9 327 343 103 118 94 53 56 58 59 62 66 67
201 199 205 206 215 213 207 218 208 211 225 232 236 242 243 240 239 229 209 185 183 190 201 266 293 246 229 184 195 197 218 235 268 284 262 280 253 291 298 248 45 352 356 317 17 336 79 64 58 62 72 66 67 78
213 206 212 219 216 211 211 211 213 223 232 238 246 253 246 242 232 207 213 208 198 146 194 253 302 262 14 175 172 174 195 185 201 225 239 270 282 300 299 66 63 34 27 10 70 72 90 87 66 65 76 74 69 74
208 213 210 207 206 202 204 214 218 228 237 245 254 250 250 255 229 174 192 154 169 126 135 197 262 277 249 119 106 122 163 191 197 234 234 251 282 217 242 116 43 45 48 31 47 123 76 42 96 85 85 82 82 79
207 206 221 199 193 201 205 216 223 232 242 251 260 270 263 108 100 145 323 146 119 96 161 198 262 314 192 146 138 172 158 201 214 238 295 244 268 242 159 74 56 24 75 55 55 68 97 108 103 100 101 99 91 87
207 209 194 198 196 196 202 224 232 243 251 281 127 112 74 52 104 84 128 118 69 150 158 188 212 219 51 128 135 175 171 188 201 220 224 186 252 237 47 82 57 33 25 38 94 95 96 92 94 100 100 97 97 95
208 191 200 196 198 206 219 230 249 248 295 141 83 69 84 68 117 117 133 69 2 345 138 222 178 240 166 147 175 174 128 216 206 223 145 223 119 96 78 67 58 43 28 8 152 105 102 97 97 92 92 92 96 100
191 196 203 206 212 217 222 239 252 260 144 150 114 83 118 128 60 45 111 117 244 246 202 218 197 163 195 166 178 215 186 191 226 174 199 175 204 117 93 74 55 51 56 61 71 66 61 97 107 108 96 91 95 98
201 207 208 211 212 216 218 210 168 148 171 142 106 95 105 152 98 135 172 152 201 231 186 185 199 188 191 187 212 172 209 184 244 145 171 204 90 113 96 79 64 64 71 71 70 78 77 81 93 101 101 97 95 97
211 211 210 212 212 212 194 196 180 133 127 93 79 127 139 259 75 181 187 194 203 192 200 191 165 166 189 198 220 200 187 176 92 85 133 78 121 108 111 107 81 78 89 90 84 84 90 90 88 104 104 97 101 97
208 212 214 211 212 218 199 206 158 163 98 113 124 136 181 195 216 196 184 191 230 217 174 162 118 189 161 161 272 183 62 208 120 207 178 143 132 114 93 86 113 97 93 99 100 98 92 87 84 81 88 97 105 103
209 214 216 220 219 222 154 146 160 50 73 87 91 176 196 222 102 223 218 255 21 289 136 117 90 163 66 80 11 134 44 252 295 73 117 118 118 123 116 111 112 110 98 87 91 93 91 90 91 92 89 97 103 108
206 216 219 200 137 134 132 118 75 85 61 72 49 116 119 120 132 50 351 92 12 334 112 36 106 69 69 102 79 185 136 241 168 165 154 132 119 112 111 107 105 108 105 108 107 112 110 109 113 113 108 104 108 117
192 201 138 130 126 132 120 89 67 54 83 60 37 81 87 91 119 66 1 345 322 342 97 94 75 128 113 72 138 201 190 170 158 138 118 125 140 139 134 122 118 121 117 111 109 107 107 115 127 124 114 130 129 130
127 128 132 134 130 92 61 47 77 79 72 38 97 44 65 24 63 19 335 328 348 77 80 109 120 87 162 169 225 174 137 114 132 131 133 135 128 128 127 121 110 118 121 114 113 115 119 108 99 108 125 129 122 124
118 125 132 130 90 87 85 61 26 94 96 115 108 93 88 93 71 302 298 330 42 58 108 62 80 146 200 202 163 161 159 154 135 117 111 123 125 122 116 111 112 109 111 123 120 102 69 48 41 92 155 163 163 158
110 92 92 78 71 79 88 68 66 90 122 132 89 73 92 88 281 346 1 18 38 39 48 55 155 193 193 206 186 143 137 130 125 123 124 130 135 133 143 146 145 139 122 105 93 100 111 86 52 44 43 43 225 221
83 32 53 64 51 60 84 100 67 94 119 88 146 91 69 25 33 23 23 357 57 40 92 195 170 48 24 115 134 123 116 131 130 135 145 142 142 134 133 130 127 126 127 138 136 111 86 81 62 55 67 72 55 30
74 54 64 34 74 60 75 15 111 135 77 120 101 87 76 52 18 20 5 53 65 170 169 148 133 126 112 108 109 110 115 106 102 98 91 116 129 131 134 131 132 133 136 144 137 131 111 78 70 76 87 72 50 48
74 49 50 39 70 53 346 15 81 67 110 146 71 76 44 58 239 108 74 94 217 237 160 103 97 99 107 97 91 80 87 118 108 109 103 98 92 89 107 101 126 140 140 124 119 127 120 21 77 86 56 56 349 335
38 56 69 73 78 138 33 34 81 93 74 108 101 104 183 162 65 51 104 241 268 344 115 121 123 110 94 78 84 92 89 107 108 96 111 124 113 90 91 94 87 81 68 121 115 113 111 103 334 125 53 78 36 324
77 12 48 71 40 100 114 73 63 79 130 162 101 97 197 127 93 116 185 207 162 129 118 115 100 101 113 107 104 102 69 141 133 126 70 118 117 113 98 80 70 59 126 143 156 187 159 179 210 244 295 319 313 319
90 5 77 171 158 119 173 125 171 164 129 116 187 101 65 102 118 224 213 170 160 160 163 153 139 125 114 123 136 134 129 122 114 104 112 147 152 146 155 155 160 129 45 75 130 170 234 215 238 280 307 326 276 299
116 205 75 33 355 92 69 38 67 102 130 162 171 135 102 152 226 243 144 194 149 170 147 137 144 136 134 124 100 80 69 63 75 96 96 74 58 45 142 169 203 134 129 118 124 139 146 154 172 251 308 293 272 264
118 55 146 355 65 31 117 74 78 122 184 341 109 137 165 180 181 319 308 10 144 105 85 62 51 85 102 104 113 110 87 92 92 95 94 75 59 57 65 71 67 84 90 93 111 115 102 135 149 204 287 303 309 295
64 11 91 59 56 52 50 126 172 129 7 90 119 152 172 62 329 297 358 118 123 115 105 102 68 85 80 73 56 56 112 123 114 106 103 134 250 190 69 79 82 68 60 106 186 139 174 174 220 256 289 294 325 316
4 50 93 72 79 76 258 168 217 256 10 90 100 100 77 36 356 1 79 103 123 112 101 111 129 128 133 125 122 95 48 3 344 134 156 200 214 135 139 120 103 81 53 63 51 10 41 50 65 59 339 325 342 327
48 77 78 71 118 233 224 289 297 131 53 55 15 93 116 121 75 38 45 60 109 116 117 112 94 95 125 134 136 130 132 55 128 153 118 107 119 125 123 118 104 93 70 66 57 52 30 351 341 321 318 323 332 327
35 98 123 113 204 272 36 67 90 77 15 52 24 60 33 64 64 11 18 65 118 117 111 130 129 159 165 115 104 64 80 117 123 118 122 119 113 115 119 112 115 101 85 77 64 63 358 333 317 318 318 324 328 327
68 74 61 95 74 8 289 88 30 67 30 57 42 118 155 136 145 172 56 17 134 146 140 121 106 101 116 119 118 112 95 100 114 107 108 106 115 122 114 104 103 103 110 103 79 354 344 322 317 319 320 319 318 319